THOR ABLESTAR DEB, 659

Orbit data source: Space-Track

THOR ABLESTAR DEB, 659 is space debris in LEO originally from a launch on Thu, 29 Jun 1961 UTC launched from the Air Force Eastern Test Range (AFETR). Debris objects in space refer to the collection of defunct objects orbiting the Earth. Examples of debris include non-operational satellites, rocket bodies, and fragments generated from explosions, collisions, or faulty payload assembly.

Loading next visibility...
Identifier
659, 1961-015HL
Orbit
LEO
Country
Flag of USUS
Related business
Manufacturer
Unknown
Mission
Spacecraft
Bus & Motor
Unknown
Mass
Unknown
Launch date (UTC)
1961-06-29 (64 years ago)
Launch vehicle
Unknown
Launch site
Air Force Eastern Test Range (AFETR)
Object type
Payload
Rocket body
Debris
Shape & HBR
Unknown shape, 0.2 m
Radar Cross Section
Small (<0.1 m²)

Expand to show TLE details & history
Last TLE update: 18 hours ago

TLE from 18 hours ago
0 THOR ABLESTAR DEB
1 00659U 61015HL  25352.93341528  .00000088  00000-0  37783-3 0  9992
2 00659  67.1609  90.5814 0581872  40.5347  69.5964 12.66720828968196
Epoch: 2025-12-18T22:24Z
TLE epoch observation values (Epoch: 2025-12-18T22:24:07.080Z)
Latitude
55.65494°
Longitude
168.94467°
Altitude
1,269.853 km
Speed
7.288 km/s
True Right ascension
15h 31m 01s
True Declination
55° 30' 19"
Sunlit
Object was in daylight at epoch
Visualization orbit readout
Latitude
Unknown
Longitude
Unknown
Altitude
Unknown
Speed
Unknown
Apparent Right ascension
Unknown
Apparent Declination
Unknown
Sunlit
N/A
Visualization observer readout
Local Sidereal Time
15:34:11
Azimuth
Unknown
Elevation
Unknown
Doppler factor
Unknown
Orbital elements
Apogee altitude
1,845.997 km
Perigee altitude
941.546 km
Semi-major axis
7,771.908 km
Eccentricity
0.05819
Inclination
67.1609°
RAAN
90.5814°
Arg. of periapsis
40.5347°
True anomaly
75.99488°
Mean anomaly
69.5964°
Eccentric anomaly
72.78085°
Mean motion
3.16776 °/min
Orbital period
113.65 mins
BSTAR
0.00037783
Loading maneuver chart data...
Computing Atmospheric mass density...

Documentation

Showing up to 5 results
|